Weather History for Indianapolis, IN

Change the Weather History Date:

Sunday, September 8, 2013

  Actual Average (KEYE) Record (KEYE)
Temperature  
Mean Temperature 75 °F 70 °F  
Max Temperature 87 °F 80 °F 93 °F (2002)
Min Temperature 63 °F 61 °F 54 °F (1998)
Degree Days  
Heating Degree Days 0 0  
Month to date heating degree days 0  
Since 1 July heating degree days 3  
Cooling Degree Days 10 6  
Month to date cooling degree days 54  
Year to date cooling degree days 974  
Growing Degree Days 25 (Base 50)    
Moisture  
Dew Point 64 °F    
Average Humidity 69    
Maximum Humidity 89    
Minimum Humidity 45    
Precipitation  
Precipitation 0.00 in 0.07 in 0.91 in (2007)
Month to date precipitation 0.59  
Year to date precipitation 29.24  
Sea Level Pressure  
Sea Level Pressure 29.99 in    
Wind  
Wind Speed 1 mph (East)    
Max Wind Speed 10 mph    
Max Gust Speed 16 mph    
Visibility 9 miles    
Events Thunderstorm    
T = Trace of Precipitation, MM = Missing Value Source: NWS Daily Summary

Daily Weather History Graph

Daily Weather History Graph

Search for Another Location

Airport:

Trip Planner

Search our weather history database for the weather conditions in past years. The results will help you decide how hot, cold, wet, or windy it might be!

Date:

Astronomy

Sep. 08, 2013 Rise Set
Actual Time 7:19 AM EDT 8:04 PM EDT
Civil Twilight 6:52 AM EDT 8:32 PM EDT
Nautical Twilight 6:19 AM EDT 9:04 PM EDT
Astronomical Twilight 5:46 AM EDT 9:38 PM EDT
Moon 10:36 AM EDT (9/8) 9:39 PM EDT (9/8)
Length of Visible Light 13h 40m
Length of Day
12h 45m
Waxing Crescent, 11% of the Moon is Illuminated
Sep 8
Waxing Crescent
Sep 12
First Quarter
Sep 19
Full
Sep 26
Last Quarter
Oct 4
New

Hourly Weather History & Observations

Time (EDT) Temp. Heat Index Dew Point Humidity Pressure Visibility Wind Dir Wind Speed Gust Speed Precip Events Conditions
12:15 AM 70.7 °F - 64.9 °F 82% 29.98 in 10.0 mi Calm Calm - N/A   Mostly Cloudy
12:35 AM 70.0 °F - 64.6 °F 83% 29.98 in 10.0 mi Calm Calm - N/A   Scattered Clouds
12:55 AM 68.4 °F - 64.0 °F 86% 29.98 in 10.0 mi Calm Calm - N/A Thunderstorm Scattered Clouds
1:15 AM 67.8 °F - 63.7 °F 87% 29.98 in 10.0 mi Calm Calm - N/A   Mostly Cloudy
1:35 AM 68.5 °F - 64.4 °F 87% 29.99 in 10.0 mi Calm Calm - N/A   Overcast
1:55 AM 69.1 °F - 65.1 °F 87% 29.99 in 10.0 mi WSW 4.6 mph - N/A   Mostly Cloudy
2:15 AM 68.5 °F - 64.2 °F 86% 29.99 in 10.0 mi Calm Calm - N/A   Scattered Clouds
2:35 AM 66.6 °F - 62.6 °F 87% 29.99 in 7.0 mi Calm Calm - N/A   Clear
2:55 AM 66.2 °F - 62.6 °F 88% 29.98 in 7.0 mi Calm Calm - N/A   Mostly Cloudy
3:15 AM 66.2 °F - 62.2 °F 87% 29.98 in 7.0 mi Calm Calm - N/A   Scattered Clouds
3:35 AM 65.3 °F - 61.7 °F 88% 29.98 in 7.0 mi Calm Calm - N/A   Scattered Clouds
3:55 AM 66.2 °F - 62.6 °F 88% 29.98 in 7.0 mi Calm Calm - N/A   Mostly Cloudy
4:15 AM 66.0 °F - 62.4 °F 88% 29.98 in 7.0 mi Calm Calm - N/A   Scattered Clouds
4:35 AM 65.3 °F - 61.7 °F 88% 29.97 in 5.0 mi Calm Calm - N/A   Clear
4:55 AM 64.8 °F - 61.2 °F 88% 29.97 in 5.0 mi Calm Calm - N/A   Clear
5:15 AM 64.6 °F - 61.0 °F 88% 29.97 in 5.0 mi Calm Calm - N/A   Clear
5:35 AM 64.2 °F - 60.8 °F 89% 29.97 in 5.0 mi Calm Calm - N/A   Clear
5:55 AM 63.7 °F - 60.4 °F 89% 29.97 in 5.0 mi Calm Calm - N/A   Scattered Clouds
6:15 AM 64.4 °F - 61.2 °F 89% 29.97 in 5.0 mi Calm Calm - N/A   Mostly Cloudy
6:35 AM 65.5 °F - 62.1 °F 89% 29.98 in 5.0 mi Calm Calm - N/A   Mostly Cloudy
6:55 AM 64.8 °F - 61.5 °F 89% 29.98 in 5.0 mi Calm Calm - N/A   Clear
7:15 AM 64.6 °F - 61.3 °F 89% 29.99 in 5.0 mi Calm Calm - N/A   Scattered Clouds
7:35 AM 65.5 °F - 62.2 °F 89% 29.99 in 4.0 mi Calm Calm - N/A   Overcast
7:55 AM 65.8 °F - 62.6 °F 89% 29.99 in 5.0 mi Calm Calm - N/A   Mostly Cloudy
8:15 AM 67.8 °F - 64.4 °F 89% 30.00 in 5.0 mi Calm Calm - N/A   Scattered Clouds
8:35 AM 70.3 °F - 66.0 °F 86% 30.00 in 7.0 mi Calm Calm - N/A   Mostly Cloudy
8:55 AM 72.3 °F - 66.4 °F 82% 29.99 in 10.0 mi Calm Calm - N/A   Scattered Clouds
9:15 AM 74.3 °F - 66.7 °F 77% 29.99 in 10.0 mi Calm Calm - N/A   Clear
9:35 AM 76.1 °F - 67.1 °F 74% 30.00 in 10.0 mi Calm Calm - N/A   Clear
9:55 AM 77.9 °F - 66.6 °F 68% 30.00 in 10.0 mi Calm Calm - N/A   Scattered Clouds
10:15 AM 79.2 °F - 65.8 °F 64% 30.00 in 10.0 mi NE 3.5 mph - N/A   Clear
10:35 AM 80.4 °F 82.2 °F 65.1 °F 59% 30.02 in 10.0 mi NE 5.8 mph - N/A   Clear
10:55 AM 81.1 °F 82.9 °F 65.3 °F 58% 30.02 in 10.0 mi ENE 4.6 mph - N/A   Clear
11:15 AM 82.4 °F 84.1 °F 64.9 °F 55% 30.01 in 10.0 mi Calm Calm - N/A   Scattered Clouds
11:35 AM 82.0 °F 83.8 °F 64.8 °F 56% 30.01 in 10.0 mi Calm Calm - N/A   Scattered Clouds
11:55 AM 83.5 °F 84.9 °F 64.0 °F 52% 30.01 in 10.0 mi ENE 3.5 mph - N/A   Scattered Clouds
12:15 PM 84.2 °F 85.8 °F 64.8 °F 52% 30.01 in 10.0 mi ENE 4.6 mph - N/A   Clear
12:35 PM 84.4 °F 85.6 °F 64.0 °F 50% 30.01 in 10.0 mi Calm Calm - N/A   Clear
12:55 PM 84.7 °F 86.3 °F 64.6 °F 51% 30.01 in 10.0 mi SSE 3.5 mph - N/A   Scattered Clouds
1:15 PM 85.5 °F 86.6 °F 63.7 °F 48% 30.00 in 10.0 mi East 4.6 mph - N/A   Clear
1:35 PM 86.2 °F 87.3 °F 64.0 °F 47% 30.00 in 10.0 mi Calm Calm - N/A   Mostly Cloudy
1:55 PM 86.0 °F 87.1 °F 63.5 °F 47% 30.00 in 7.0 mi South 4.6 mph - N/A   Overcast
2:15 PM 85.3 °F 86.4 °F 63.7 °F 48% 30.00 in 10.0 mi Calm Calm - N/A   Overcast
2:35 PM 86.2 °F 86.8 °F 62.6 °F 45% 29.99 in 10.0 mi Calm Calm - N/A   Overcast
2:55 PM 86.2 °F 86.8 °F 62.6 °F 45% 29.99 in 10.0 mi Calm Calm - N/A   Overcast
3:15 PM 86.0 °F 86.8 °F 62.8 °F 46% 29.99 in 10.0 mi Calm Calm - N/A   Overcast
3:35 PM 86.4 °F 87.6 °F 63.7 °F 47% 29.98 in 10.0 mi Calm Calm - N/A   Overcast
3:55 PM 86.5 °F 87.6 °F 63.7 °F 46% 29.98 in 10.0 mi Calm Calm - N/A   Scattered Clouds
4:15 PM 86.4 °F 87.0 °F 62.4 °F 45% 29.98 in 10.0 mi Calm Calm - N/A   Mostly Cloudy
4:35 PM 86.2 °F 87.3 °F 64.0 °F 47% 29.97 in 10.0 mi Calm Calm - N/A   Overcast
4:55 PM 85.5 °F 86.3 °F 63.3 °F 47% 29.96 in 10.0 mi Calm Calm - N/A   Overcast
5:15 PM 87.1 °F 88.0 °F 63.1 °F 45% 29.96 in 10.0 mi NNE 3.5 mph - N/A   Mostly Cloudy
5:35 PM 85.8 °F 86.6 °F 63.1 °F 46% 29.96 in 10.0 mi NE 4.6 mph - N/A   Mostly Cloudy
5:55 PM 85.3 °F 86.6 °F 64.0 °F 49% 29.95 in 10.0 mi NE 3.5 mph - N/A   Mostly Cloudy
6:15 PM 84.6 °F 85.9 °F 64.0 °F 50% 29.96 in 10.0 mi Calm Calm - N/A   Scattered Clouds
6:35 PM 84.6 °F 86.1 °F 64.4 °F 51% 29.96 in 10.0 mi Calm Calm - N/A   Mostly Cloudy
6:55 PM 83.8 °F 85.8 °F 65.5 °F 54% 29.96 in 10.0 mi Calm Calm - N/A   Overcast
7:15 PM 82.8 °F 84.3 °F 64.4 °F 54% 29.96 in 10.0 mi ENE 3.5 mph - N/A   Overcast
7:35 PM 81.1 °F 82.9 °F 65.3 °F 58% 29.97 in 10.0 mi East 10.4 mph 16.1 mph N/A   Overcast
7:55 PM 79.9 °F - 65.8 °F 62% 29.97 in 10.0 mi East 5.8 mph - N/A   Overcast
8:15 PM 79.3 °F - 65.8 °F 63% 29.97 in 10.0 mi ENE 5.8 mph - N/A   Overcast
8:35 PM 78.4 °F - 65.7 °F 65% 29.98 in 10.0 mi ENE 5.8 mph - N/A   Overcast
8:55 PM 77.2 °F - 65.3 °F 67% 29.99 in 10.0 mi ENE 5.8 mph - N/A   Mostly Cloudy
9:15 PM 76.1 °F - 64.8 °F 68% 29.99 in 10.0 mi ENE 6.9 mph - N/A   Scattered Clouds
9:35 PM 75.2 °F - 64.8 °F 70% 30.00 in 7.0 mi East 3.5 mph - N/A   Clear
9:55 PM 73.8 °F - 64.6 °F 73% 30.00 in 7.0 mi East 3.5 mph - N/A   Clear
10:15 PM 73.4 °F - 64.6 °F 74% 30.00 in 7.0 mi East 3.5 mph - N/A   Clear
10:35 PM 72.9 °F - 64.6 °F 75% 30.01 in 7.0 mi ESE 5.8 mph - N/A   Clear
10:55 PM 72.9 °F - 64.4 °F 75% 30.02 in 10.0 mi East 3.5 mph - N/A   Clear
11:15 PM 72.7 °F - 64.0 °F 74% 30.02 in 10.0 mi East 6.9 mph - N/A   Clear
11:35 PM 72.3 °F - 63.7 °F 74% 30.02 in 10.0 mi ESE 4.6 mph - N/A   Clear
11:55 PM 71.6 °F - 63.7 °F 76% 30.02 in 10.0 mi ESE 4.6 mph - N/A   Clear